SBI771 URWW-UWKD

Flight info

Callsign SBI771
Flight time 1h 22m
Altitude 33000
Route N0454F330 DCT RODUN R807 UROBO/K0841F330 P135 ABNOT/N0454F330 P135 DAFOS T789 BMK T173 AGUTO T789 SONUM DCT
Aircraft A321/M-UUDD/L

Departure

Time 2026-05-07 16:58
Airport Volgograd International Airport (URWW)

Arrival

Time 2026-05-07 18:20
Airport Kazan International Airport (UWKD)
Time Latitude Longitude Altitude Speed Heading
2026-05-07 16:29 48.79064 44.35515 471 ft 0 kts 339°
2026-05-07 16:43 48.79061 44.35517 471 ft 2 kts 339°
2026-05-07 16:43 48.79051 44.35522 471 ft 0 kts 339°
2026-05-07 16:43 48.79039 44.35532 471 ft 2 kts 309°
2026-05-07 16:44 48.79031 44.35552 471 ft 2 kts 282°
2026-05-07 16:44 48.79031 44.35575 471 ft 1 kts 255°
2026-05-07 16:44 48.79033 44.35583 471 ft 1 kts 245°
2026-05-07 16:44 48.79034 44.35588 471 ft 0 kts 248°
2026-05-07 16:48 48.79032 44.35578 471 ft 2 kts 248°
2026-05-07 16:49 48.79024 44.35547 471 ft 3 kts 248°
2026-05-07 16:49 48.79014 44.35507 471 ft 4 kts 248°
2026-05-07 16:49 48.79000 44.35454 470 ft 6 kts 249°
2026-05-07 16:49 48.78985 44.35392 469 ft 3 kts 249°
2026-05-07 16:50 48.78974 44.35347 468 ft 6 kts 249°
2026-05-07 16:50 48.78961 44.35294 467 ft 5 kts 249°
2026-05-07 16:50 48.78956 44.35275 467 ft 1 kts 249°
2026-05-07 16:50 48.78948 44.35240 467 ft 4 kts 249°
2026-05-07 16:51 48.78937 44.35194 467 ft 5 kts 249°
2026-05-07 16:51 48.78909 44.35127 467 ft 8 kts 212°
2026-05-07 16:51 48.78847 44.35132 467 ft 9 kts 164°
2026-05-07 16:51 48.78787 44.35161 466 ft 9 kts 161°
2026-05-07 16:52 48.78721 44.35194 466 ft 10 kts 161°
2026-05-07 16:52 48.78707 44.35201 466 ft 0 kts 161°
2026-05-07 16:55 48.78678 44.35215 465 ft 6 kts 161°
2026-05-07 16:55 48.78631 44.35239 466 ft 7 kts 161°
2026-05-07 16:55 48.78581 44.35247 466 ft 7 kts 196°
2026-05-07 16:56 48.78556 44.35218 465 ft 0 kts 233°
2026-05-07 16:57 48.78551 44.35207 465 ft 8 kts 237°
2026-05-07 16:57 48.78438 44.34861 462 ft 71 kts 244°
2026-05-07 16:58 48.78127 44.33884 440 ft 134 kts 245°
2026-05-07 16:58 48.77665 44.32407 667 ft 161 kts 245°
2026-05-07 16:58 48.77197 44.30919 1247 ft 160 kts 245°
2026-05-07 16:58 48.76717 44.29396 1780 ft 164 kts 246°
2026-05-07 16:59 48.76219 44.27820 2252 ft 168 kts 246°
2026-05-07 16:59 48.75684 44.26172 2483 ft 179 kts 246°
2026-05-07 16:59 48.75126 44.24448 2715 ft 190 kts 246°
2026-05-07 16:59 48.74645 44.22538 2947 ft 199 kts 267°
2026-05-07 17:00 48.74905 44.20525 3177 ft 201 kts 303°
2026-05-07 17:00 48.75912 44.19060 3424 ft 205 kts 337°
2026-05-07 17:00 48.77321 44.18699 3648 ft 215 kts
2026-05-07 17:00 48.78724 44.19658 3876 ft 231 kts 36°
2026-05-07 17:01 48.80053 44.21147 4180 ft 246 kts 34°
2026-05-07 17:01 48.81486 44.22649 4655 ft 255 kts 33°
2026-05-07 17:01 48.82956 44.24173 5309 ft 257 kts 33°
2026-05-07 17:01 48.84408 44.25680 5954 ft 258 kts 34°
2026-05-07 17:02 48.85902 44.27236 6568 ft 262 kts 34°
2026-05-07 17:02 48.87389 44.28790 7196 ft 264 kts 34°
2026-05-07 17:02 48.88895 44.30367 7820 ft 266 kts 34°
2026-05-07 17:02 48.90427 44.31974 8458 ft 267 kts 34°
2026-05-07 17:03 48.91943 44.33563 9060 ft 269 kts 34°
2026-05-07 17:03 48.93468 44.35166 9679 ft 270 kts 34°
2026-05-07 17:03 48.95014 44.36793 10243 ft 273 kts 34°
2026-05-07 17:03 48.96621 44.38484 10541 ft 286 kts 34°
2026-05-07 17:04 48.98288 44.40237 10813 ft 300 kts 34°
2026-05-07 17:04 49.00028 44.42067 11057 ft 313 kts 34°
2026-05-07 17:04 49.01853 44.43991 11411 ft 321 kts 34°
2026-05-07 17:04 49.03682 44.45921 11953 ft 323 kts 34°
2026-05-07 17:05 49.05541 44.47886 12497 ft 326 kts 34°
2026-05-07 17:05 49.07390 44.49841 13011 ft 328 kts 34°
2026-05-07 17:05 49.09263 44.51824 13520 ft 330 kts 34°
2026-05-07 17:05 49.11141 44.53816 14026 ft 332 kts 34°
2026-05-07 17:06 49.13044 44.55835 14521 ft 335 kts 34°
2026-05-07 17:06 49.14950 44.57859 14994 ft 338 kts 34°
2026-05-07 17:06 49.16875 44.59906 15458 ft 340 kts 34°
2026-05-07 17:06 49.18817 44.61974 15906 ft 343 kts 34°
2026-05-07 17:07 49.20777 44.64059 16369 ft 345 kts 34°
2026-05-07 17:07 49.22763 44.66177 16801 ft 347 kts 34°
2026-05-07 17:07 49.24725 44.68268 16950 ft 350 kts 34°
2026-05-07 17:07 49.26720 44.70399 16948 ft 349 kts 35°
2026-05-07 17:08 49.28728 44.72546 16950 ft 350 kts 35°
2026-05-07 17:08 49.30695 44.74652 16947 ft 349 kts 35°
2026-05-07 17:08 49.32681 44.76781 16948 ft 349 kts 35°
2026-05-07 17:08 49.34666 44.78909 17091 ft 354 kts 34°
2026-05-07 17:09 49.36676 44.81068 17596 ft 353 kts 35°
2026-05-07 17:09 49.38702 44.83247 18064 ft 355 kts 35°
2026-05-07 17:09 49.40721 44.85418 18466 ft 357 kts 35°
2026-05-07 17:09 49.42770 44.87625 18859 ft 360 kts 35°
2026-05-07 17:10 49.44818 44.89833 19261 ft 362 kts 34°
2026-05-07 17:10 49.46864 44.92042 19676 ft 364 kts 35°
2026-05-07 17:10 49.48925 44.94268 20068 ft 366 kts 34°
2026-05-07 17:10 49.51009 44.96524 20464 ft 367 kts 35°
2026-05-07 17:11 49.53102 44.98790 20847 ft 369 kts 35°
2026-05-07 17:11 49.55198 45.01064 21206 ft 371 kts 34°
2026-05-07 17:11 49.57310 45.03359 21581 ft 373 kts 34°
2026-05-07 17:11 49.59407 45.05637 21930 ft 376 kts 34°
2026-05-07 17:12 49.61566 45.07986 22290 ft 377 kts 34°
2026-05-07 17:12 49.63708 45.10318 22644 ft 379 kts 34°
2026-05-07 17:12 49.65944 45.12472 22985 ft 381 kts 28°
2026-05-07 17:12 49.68306 45.14215 23334 ft 382 kts 22°
2026-05-07 17:13 49.70805 45.15569 23660 ft 384 kts 17°
2026-05-07 17:13 49.73389 45.16731 23971 ft 386 kts 16°
2026-05-07 17:13 49.75959 45.17848 24285 ft 388 kts 15°
2026-05-07 17:13 49.78566 45.18978 24613 ft 390 kts 15°
2026-05-07 17:14 49.81176 45.20115 24931 ft 391 kts 15°
2026-05-07 17:14 49.83799 45.21261 25214 ft 394 kts 15°
2026-05-07 17:14 49.86422 45.22413 25515 ft 395 kts 15°
2026-05-07 17:14 49.89077 45.23581 25838 ft 396 kts 15°
2026-05-07 17:15 49.91720 45.24744 26112 ft 398 kts 15°
2026-05-07 17:15 49.94367 45.25912 26364 ft 400 kts 15°
2026-05-07 17:15 49.97049 45.27097 26626 ft 402 kts 15°
2026-05-07 17:15 49.99755 45.28292 26884 ft 404 kts 15°
2026-05-07 17:16 50.02471 45.29402 27138 ft 406 kts 13°
2026-05-07 17:16 50.05233 45.30368 27399 ft 408 kts 12°
2026-05-07 17:16 50.07981 45.31299 27687 ft 408 kts 12°
2026-05-07 17:16 50.10726 45.32225 28089 ft 406 kts 12°
2026-05-07 17:17 50.13475 45.33153 28493 ft 404 kts 12°
2026-05-07 17:17 50.16225 45.34086 28899 ft 402 kts 12°
2026-05-07 17:17 50.18914 45.34999 29298 ft 399 kts 12°
2026-05-07 17:17 50.21631 45.35924 29637 ft 399 kts 12°
2026-05-07 17:18 50.24349 45.36851 29964 ft 398 kts 12°
2026-05-07 17:18 50.27025 45.37766 30286 ft 397 kts 12°
2026-05-07 17:18 50.29713 45.38686 30478 ft 400 kts 12°
2026-05-07 17:18 50.32451 45.39625 30586 ft 404 kts 12°
2026-05-07 17:19 50.35178 45.40561 30868 ft 403 kts 12°
2026-05-07 17:19 50.37916 45.41503 31215 ft 401 kts 12°
2026-05-07 17:19 50.40618 45.42433 31558 ft 399 kts 12°
2026-05-07 17:19 50.43295 45.43356 31869 ft 397 kts 12°
2026-05-07 17:20 50.45986 45.44284 32161 ft 396 kts 11°
2026-05-07 17:20 50.48663 45.45209 32452 ft 395 kts 11°
2026-05-07 17:20 50.51330 45.46131 32692 ft 395 kts 11°
2026-05-07 17:20 50.54004 45.47055 32877 ft 396 kts 11°
2026-05-07 17:21 50.59412 45.48929 32948 ft 405 kts 11°
2026-05-07 17:21 50.64975 45.50861 32954 ft 415 kts 11°
2026-05-07 17:22 50.70664 45.52844 32956 ft 425 kts 11°
2026-05-07 17:22 50.76440 45.54864 32952 ft 427 kts 12°
2026-05-07 17:23 50.82229 45.56908 32953 ft 427 kts 12°
2026-05-07 17:23 50.88025 45.58990 32953 ft 427 kts 12°
2026-05-07 17:24 50.93790 45.61066 32950 ft 427 kts 12°
2026-05-07 17:24 50.99532 45.63212 32954 ft 428 kts 14°
2026-05-07 17:25 51.05169 45.66156 32955 ft 428 kts 21°
2026-05-07 17:25 51.10621 45.69985 32951 ft 430 kts 24°
2026-05-07 17:26 51.16001 45.74031 32952 ft 428 kts 25°
2026-05-07 17:26 51.21357 45.78068 32937 ft 428 kts 25°
2026-05-07 17:27 51.26736 45.82129 32936 ft 428 kts 25°
2026-05-07 17:27 51.32104 45.86189 32944 ft 428 kts 25°
2026-05-07 17:28 51.37489 45.90270 32938 ft 429 kts 25°
2026-05-07 17:28 51.42872 45.94361 32942 ft 430 kts 25°
2026-05-07 17:29 51.48263 45.98470 32941 ft 430 kts 25°
2026-05-07 17:29 51.53640 46.02581 32934 ft 430 kts 25°
2026-05-07 17:30 51.58980 46.06757 32937 ft 430 kts 26°
2026-05-07 17:30 51.64289 46.11145 32935 ft 431 kts 26°
2026-05-07 17:31 51.69626 46.15568 32936 ft 432 kts 26°
2026-05-07 17:31 51.74942 46.19974 32934 ft 433 kts 26°
2026-05-07 17:32 51.80278 46.24400 32936 ft 434 kts 26°
2026-05-07 17:32 51.85634 46.28842 32936 ft 434 kts 26°
2026-05-07 17:33 51.90978 46.33296 32936 ft 434 kts 26°
2026-05-07 17:33 51.96334 46.37772 32936 ft 435 kts 26°
2026-05-07 17:34 52.01693 46.42262 32935 ft 436 kts 26°
2026-05-07 17:34 52.07077 46.46783 32934 ft 436 kts 26°
2026-05-07 17:35 52.12441 46.51305 32933 ft 436 kts 26°
2026-05-07 17:35 52.17815 46.55844 32931 ft 436 kts 26°
2026-05-07 17:36 52.23151 46.60358 32927 ft 436 kts 26°
2026-05-07 17:36 52.28561 46.64949 32926 ft 437 kts 26°
2026-05-07 17:37 52.33915 46.69511 32924 ft 438 kts 26°
2026-05-07 17:37 52.39310 46.74123 32920 ft 438 kts 26°
2026-05-07 17:38 52.44690 46.78738 32924 ft 438 kts 26°
2026-05-07 17:38 52.50069 46.83362 32925 ft 439 kts 26°
2026-05-07 17:39 52.55481 46.88014 32922 ft 439 kts 26°
2026-05-07 17:39 52.60854 46.92649 32924 ft 440 kts 26°
2026-05-07 17:40 52.66267 46.97337 32921 ft 440 kts 26°
2026-05-07 17:40 52.71672 47.02035 32926 ft 441 kts 26°
2026-05-07 17:41 52.77071 47.06744 32928 ft 441 kts 26°
2026-05-07 17:41 52.82497 47.11483 32930 ft 442 kts 26°
2026-05-07 17:42 52.87887 47.16201 32930 ft 442 kts 26°
2026-05-07 17:42 52.93317 47.20969 32933 ft 443 kts 26°
2026-05-07 17:43 52.98753 47.25759 32934 ft 444 kts 26°
2026-05-07 17:43 53.04183 47.30563 32940 ft 444 kts 26°
2026-05-07 17:44 53.09581 47.35352 32943 ft 444 kts 26°
2026-05-07 17:44 53.15022 47.40195 32943 ft 444 kts 26°
2026-05-07 17:45 53.20464 47.45042 32942 ft 444 kts 27°
2026-05-07 17:45 53.25888 47.49883 32941 ft 445 kts 27°
2026-05-07 17:46 53.31330 47.54763 32943 ft 445 kts 27°
2026-05-07 17:46 53.36749 47.59638 32946 ft 444 kts 27°
2026-05-07 17:47 53.42189 47.64550 32949 ft 444 kts 27°
2026-05-07 17:47 53.47609 47.69292 32948 ft 443 kts 24°
2026-05-07 17:48 53.53268 47.73275 32953 ft 442 kts 21°
2026-05-07 17:48 53.58974 47.77029 32951 ft 442 kts 20°
2026-05-07 17:49 53.64692 47.80810 32945 ft 442 kts 21°
2026-05-07 17:49 53.70452 47.84356 32942 ft 441 kts 16°
2026-05-07 17:50 53.76372 47.86990 32942 ft 441 kts 13°
2026-05-07 17:50 53.82260 47.89680 32941 ft 441 kts 17°
2026-05-07 17:51 53.87939 47.93401 32940 ft 441 kts 22°
2026-05-07 17:51 53.93549 47.97615 32938 ft 441 kts 23°
2026-05-07 17:52 53.99101 48.01825 32938 ft 441 kts 23°
2026-05-07 17:52 54.04711 48.06080 32941 ft 441 kts 23°
2026-05-07 17:53 54.10269 48.10302 32945 ft 441 kts 23°
2026-05-07 17:53 54.15873 48.14570 32946 ft 441 kts 23°
2026-05-07 17:54 54.21460 48.18837 32948 ft 441 kts 23°
2026-05-07 17:54 54.26996 48.23239 32577 ft 442 kts 26°
2026-05-07 17:55 54.29666 48.25704 32027 ft 440 kts 28°
2026-05-07 17:55 54.32343 48.28261 31467 ft 436 kts 28°
2026-05-07 17:55 54.34975 48.30796 30916 ft 435 kts 28°
2026-05-07 17:55 54.37611 48.33337 30360 ft 438 kts 28°
2026-05-07 17:56 54.40228 48.35860 29804 ft 440 kts 28°
2026-05-07 17:56 54.42903 48.38441 29241 ft 441 kts 28°
2026-05-07 17:56 54.45574 48.41019 28668 ft 441 kts 28°
2026-05-07 17:56 54.48215 48.43573 28085 ft 437 kts 28°
2026-05-07 17:57 54.50825 48.46099 27502 ft 433 kts 28°
2026-05-07 17:57 54.52581 48.47800 27106 ft 431 kts 28°
2026-05-07 17:57 54.56030 48.51146 26354 ft 425 kts 28°
2026-05-07 17:57 54.58576 48.53620 25826 ft 420 kts 28°
2026-05-07 17:58 54.61100 48.56077 25314 ft 415 kts 28°
2026-05-07 17:58 54.63587 48.58502 24838 ft 410 kts 28°
2026-05-07 17:58 54.66044 48.60900 24365 ft 408 kts 28°
2026-05-07 17:58 54.68499 48.63299 23894 ft 404 kts 28°
2026-05-07 17:59 54.70901 48.65649 23431 ft 401 kts 29°
2026-05-07 17:59 54.73311 48.68013 22961 ft 398 kts 29°
2026-05-07 17:59 54.75709 48.70369 22533 ft 396 kts 29°
2026-05-07 17:59 54.78112 48.72732 22227 ft 395 kts 29°
2026-05-07 18:00 54.80470 48.75052 21967 ft 394 kts 29°
2026-05-07 18:00 54.82859 48.77404 21938 ft 394 kts 29°
2026-05-07 18:00 54.85217 48.79731 21936 ft 394 kts 29°
2026-05-07 18:00 54.87619 48.82104 21949 ft 395 kts 29°
2026-05-07 18:01 54.89994 48.84455 21949 ft 394 kts 29°
2026-05-07 18:01 54.92348 48.86791 21645 ft 393 kts 29°
2026-05-07 18:01 54.94692 48.89121 21222 ft 390 kts 29°
2026-05-07 18:01 54.97051 48.91470 20793 ft 387 kts 29°
2026-05-07 18:02 55.01669 48.96080 19932 ft 382 kts 29°
2026-05-07 18:02 55.03943 48.98354 19528 ft 381 kts 29°
2026-05-07 18:02 55.06254 49.00669 18934 ft 381 kts 29°
2026-05-07 18:03 55.08517 49.02937 18362 ft 381 kts 29°
2026-05-07 18:03 55.10805 49.05234 17819 ft 380 kts 29°
2026-05-07 18:03 55.13099 49.07538 17298 ft 378 kts 28°
2026-05-07 18:03 55.15362 49.09737 16773 ft 375 kts 25°
2026-05-07 18:04 55.17734 49.11366 16254 ft 364 kts 15°
2026-05-07 18:04 55.20168 49.12347 15740 ft 359 kts
2026-05-07 18:04 55.22624 49.13096 15215 ft 357 kts
2026-05-07 18:04 55.25049 49.13801 14618 ft 354 kts
2026-05-07 18:05 55.27462 49.14507 14021 ft 351 kts
2026-05-07 18:05 55.29847 49.15213 13430 ft 351 kts
2026-05-07 18:05 55.32253 49.15933 12843 ft 351 kts
2026-05-07 18:05 55.34639 49.16649 12219 ft 346 kts
2026-05-07 18:06 55.36966 49.17354 11607 ft 340 kts
2026-05-07 18:06 55.39257 49.18050 10982 ft 330 kts
2026-05-07 18:06 55.41473 49.18724 10394 ft 318 kts
2026-05-07 18:06 55.43601 49.19373 9889 ft 305 kts
2026-05-07 18:07 55.45631 49.19992 9428 ft 292 kts
2026-05-07 18:07 55.47610 49.20593 9003 ft 285 kts
2026-05-07 18:07 55.49540 49.20607 8552 ft 279 kts 344°
2026-05-07 18:07 55.51201 49.19002 8162 ft 275 kts 317°
2026-05-07 18:08 55.52388 49.16344 7946 ft 277 kts 307°
2026-05-07 18:08 55.53504 49.13568 7614 ft 278 kts 307°
2026-05-07 18:08 55.54630 49.10807 7207 ft 278 kts 307°
2026-05-07 18:08 55.55744 49.08090 6948 ft 273 kts 308°
2026-05-07 18:09 55.56840 49.05425 6961 ft 264 kts 308°
2026-05-07 18:09 55.57897 49.02855 6945 ft 249 kts 308°
2026-05-07 18:09 55.58872 49.00476 6930 ft 234 kts 308°
2026-05-07 18:09 55.59791 48.98235 6934 ft 218 kts 308°
2026-05-07 18:10 55.60650 48.96142 6921 ft 203 kts 308°
2026-05-07 18:10 55.61457 48.94153 6813 ft 198 kts 308°
2026-05-07 18:10 55.62253 48.92169 6550 ft 198 kts 308°
2026-05-07 18:10 55.63043 48.90189 6268 ft 196 kts 308°
2026-05-07 18:11 55.63826 48.88221 5984 ft 196 kts 308°
2026-05-07 18:11 55.64347 48.86916 5811 ft 195 kts 308°
2026-05-07 18:11 55.65387 48.84318 5466 ft 195 kts 308°
2026-05-07 18:11 55.66169 48.82382 5194 ft 194 kts 308°
2026-05-07 18:12 55.66950 48.80460 5011 ft 194 kts 308°
2026-05-07 18:12 55.67741 48.78522 4767 ft 194 kts 308°
2026-05-07 18:12 55.68665 48.76826 4458 ft 191 kts 335°
2026-05-07 18:12 55.69932 48.76673 4183 ft 188 kts 21°
2026-05-07 18:13 55.70954 48.78031 4006 ft 186 kts 54°
2026-05-07 18:13 55.71400 48.80150 3828 ft 186 kts 85°
2026-05-07 18:13 55.71372 48.82429 3673 ft 186 kts 91°
2026-05-07 18:13 55.71328 48.84705 3494 ft 184 kts 91°
2026-05-07 18:14 55.71298 48.86951 3318 ft 183 kts 90°
2026-05-07 18:14 55.71277 48.89204 3141 ft 182 kts 90°
2026-05-07 18:14 55.71261 48.91450 2969 ft 182 kts 90°
2026-05-07 18:14 55.71247 48.93679 2792 ft 181 kts 90°
2026-05-07 18:15 55.71234 48.95897 2701 ft 178 kts 90°
2026-05-07 18:15 55.71223 48.97974 2664 ft 161 kts 90°
2026-05-07 18:15 55.71058 48.99869 2696 ft 156 kts 107°
2026-05-07 18:15 55.70609 49.01650 2693 ft 157 kts 116°
2026-05-07 18:16 55.70079 49.03301 2687 ft 156 kts 118°
2026-05-07 18:16 55.69513 49.04951 2680 ft 156 kts 120°
2026-05-07 18:16 55.68918 49.06573 2679 ft 156 kts 121°
2026-05-07 18:16 55.68311 49.08165 2632 ft 157 kts 122°
2026-05-07 18:17 55.67696 49.09746 2437 ft 155 kts 122°
2026-05-07 18:17 55.67090 49.11291 2234 ft 149 kts 122°
2026-05-07 18:17 55.66509 49.12770 2045 ft 147 kts 121°
2026-05-07 18:17 55.65929 49.14249 1861 ft 147 kts 121°
2026-05-07 18:18 55.65350 49.15732 1671 ft 146 kts 121°
2026-05-07 18:18 55.64769 49.17225 1475 ft 146 kts 121°
2026-05-07 18:18 55.64200 49.18688 1285 ft 145 kts 122°
2026-05-07 18:18 55.63628 49.20155 1089 ft 145 kts 122°
2026-05-07 18:19 55.63050 49.21617 894 ft 145 kts 123°
2026-05-07 18:19 55.62484 49.23084 702 ft 144 kts 122°
2026-05-07 18:19 55.61926 49.24549 514 ft 144 kts 123°
2026-05-07 18:19 55.61372 49.25952 418 ft 129 kts 124°
2026-05-07 18:20 55.60966 49.26997 418 ft 70 kts 123°
2026-05-07 18:20 55.60726 49.27619 418 ft 61 kts 123°
2026-05-07 18:20 55.60493 49.28228 418 ft 54 kts 123°
2026-05-07 18:20 55.60421 49.28606 418 ft 25 kts 44°
2026-05-07 18:21 55.60456 49.28654 418 ft 0 kts 34°
2026-05-07 18:22 55.60471 49.28672 419 ft 6 kts 34°
2026-05-07 18:23 55.60511 49.28769 419 ft 13 kts 81°
2026-05-07 18:23 55.60464 49.28954 419 ft 20 kts 123°
2026-05-07 18:23 55.60386 49.29159 419 ft 19 kts 123°
2026-05-07 18:23 55.60308 49.29359 419 ft 19 kts 124°
2026-05-07 18:24 55.60234 49.29549 419 ft 18 kts 124°
2026-05-07 18:24 55.60162 49.29738 419 ft 18 kts 125°
2026-05-07 18:24 55.60123 49.29930 419 ft 17 kts 57°
2026-05-07 18:24 55.60217 49.29926 419 ft 11 kts 335°
2026-05-07 18:25 55.60296 49.29882 419 ft 12 kts 354°
2026-05-07 18:25 55.60382 49.29915 419 ft 14 kts 28°
2026-05-07 18:25 55.60464 49.30014 419 ft 14 kts 33°
2026-05-07 18:25 55.60551 49.30091 419 ft 13 kts 354°
2026-05-07 18:26 55.60617 49.29989 419 ft 11 kts 322°
2026-05-07 18:26 55.60669 49.29994 419 ft 7 kts 24°
2026-05-07 18:26 55.60691 49.30019 419 ft 2 kts 36°
2026-05-07 18:26 55.60692 49.30020 419 ft 0 kts 36°